(211674) = 2003 WS32

Discovered at Kitt Peak on 2003-11-18 by Spacewatch.

Orbit

Orbit type: Main Belt

Note: WebGL enabled browser required.

epoch2024-03-31.0
epoch JD2460400.5
perihelion date2022-02-11.92962
perihelion JD2459622.42963
argument of perihelion (°)11.05203
ascending node (°)10.61889
inclination (°)1.57546
eccentricity0.0651640
perihelion distance (AU)2.2419746
Tisserand w.r.t. Jupiter3.5
ΔV w.r.t. Earth (km/sec)9.3
semimajor axis (AU)2.3982546
mean anomaly (°)206.48097
mean daily motion (°/day)0.26537570
aphelion distance (AU)2.555
period (years)3.71
P-vector [x]0.92933348
P-vector [y]0.33664145
P-vector [z]0.15169646
Q-vector [x]-0.36920673
Q-vector [y]0.84156654
Q-vector [z]0.39427419
absolute magnitude16.96
phase slope0.15
uncertainty0
referenceE2024-H23
observations used431
oppositions19
arc length (days)10962
first opposition used1994
last opposition used2024
residual rms (arc-secs)0.77
perturbers coarse indicatorM-v
perturbers precise indicator003Ek
first observation date used1994-04-12.0
last observation date used2024-04-16.0
computer nameMPCLINUX
JD of orbit computation2456966.922250
perihelion JD uncertainty (days)1.2875E-04
argument of perihelion uncertainty (°)1.5573E-04
ascending node uncertainty (°)1.5142E-04
inclination uncertainty (°)5.4676E-06
eccentricity uncertainty 5.2238E-08
perihelion distance uncertainty (AU)1.2498E-07
Minimum Orbit Intersection Distances (in AU)
for orbit epoch: 2460400.5, reference: E2024-H23
Mercury1.89076
Venus1.51847
Earth1.24438
Mars0.76047
Jupiter2.70634
Saturn6.68603
Uranus15.9128
Neptune27.5787

Observations

446 total observations over interval: 1994 04 12.24365 – 2023 02 25.495303
These data are available for download (format description).

Date (UT) J2000 RA J2000 Dec Magn Location Ref
1994 04 12.24365 13 24 15.42 -09 25 59.8   691 – Steward Observatory, Kitt Peak-Spacewatch MPS 96381
1994 04 12.30953 13 24 11.55 -09 25 40.3 20.4 V 691 – Steward Observatory, Kitt Peak-Spacewatch MPS 96381
1994 04 12.38393 13 24 07.11 -09 25 18.2   691 – Steward Observatory, Kitt Peak-Spacewatch MPS 96381
1999 10 09.29611 00 48 11.63 +05 21 27.9 19.6   704 – Lincoln Laboratory ETS, New Mexico MPS 94765
1999 10 09.32229 00 48 10.05 +05 21 19.8 19.8   704 – Lincoln Laboratory ETS, New Mexico MPS 94765
1999 10 09.33579 00 48 09.21 +05 21 15.6 20.0   704 – Lincoln Laboratory ETS, New Mexico MPS 94765
1999 11 09.08849 00 26 43.01 +03 30 23.7 19.7   704 – Lincoln Laboratory ETS, New Mexico MPS 94765
1999 11 09.10287 00 26 42.78 +03 30 22.8 19.7   704 – Lincoln Laboratory ETS, New Mexico MPS 94765
1999 11 09.11727 00 26 42.32 +03 30 20.6 19.7   704 – Lincoln Laboratory ETS, New Mexico MPS 94765
1999 11 09.13165 00 26 42.02 +03 30 19.3 19.7   704 – Lincoln Laboratory ETS, New Mexico MPS 94765
2001 02 23.30957 10 27 18.53 +11 20 35.5 20.5 V 691 – Steward Observatory, Kitt Peak-Spacewatch MPS 96381
2001 02 23.33088 10 27 17.18 +11 20 41.4 20.6 V 691 – Steward Observatory, Kitt Peak-Spacewatch MPS 96381
2001 02 23.35206 10 27 15.83 +11 20 47.8 20.8 V 691 – Steward Observatory, Kitt Peak-Spacewatch MPS 96381
2003 11 18.24872 03 49 09.25 +22 08 51.7 20.0 V 691 – Steward Observatory, Kitt Peak-Spacewatch MPS 92001
2003 11 18.27647 03 49 07.36 +22 08 48.1 19.7 V 691 – Steward Observatory, Kitt Peak-Spacewatch MPS 92001
2003 11 18.30493 03 49 05.46 +22 08 42.9 20.0 V 691 – Steward Observatory, Kitt Peak-Spacewatch MPS 92001
2003 11 20.27309 03 46 57.78 +22 03 23.5 19.8   704 – Lincoln Laboratory ETS, New Mexico MPS 92001
2003 11 20.28562 03 46 56.91 +22 03 20.8 19.3   704 – Lincoln Laboratory ETS, New Mexico MPS 92001
2003 11 20.29801 03 46 56.12 +22 03 18.9 19.6   704 – Lincoln Laboratory ETS, New Mexico MPS 92001
2003 11 20.31054 03 46 55.17 +22 03 15.2 20.3   704 – Lincoln Laboratory ETS, New Mexico MPS 92001
2003 11 20.32343 03 46 54.40 +22 03 14.8 19.7   704 – Lincoln Laboratory ETS, New Mexico MPS 92001
2003 11 24.15193 03 42 46.67 +21 52 13.4 19.2 R 699 – Lowell Observatory-LONEOS MPS 92001
2003 11 24.16949 03 42 45.52 +21 52 11.5   699 – Lowell Observatory-LONEOS MPS 92001
2003 11 24.18699 03 42 44.37 +21 52 07.8   699 – Lowell Observatory-LONEOS MPS 92001
2003 11 24.20457 03 42 43.23 +21 52 04.8   699 – Lowell Observatory-LONEOS MPS 92001
2003 12 21.08478 03 20 29.35 +20 37 17.2 20.7 V 691 – Steward Observatory, Kitt Peak-Spacewatch MPS 94765
2003 12 21.11150 03 20 28.56 +20 37 14.2 20.6 V 691 – Steward Observatory, Kitt Peak-Spacewatch MPS 94765
2003 12 21.14154 03 20 27.66 +20 37 10.7 20.7 V 691 – Steward Observatory, Kitt Peak-Spacewatch MPS 94765
2003 12 22.20090 03 19 59.43 +20 35 09.3 20.0   704 – Lincoln Laboratory ETS, New Mexico MPS 94765
2003 12 22.22776 03 19 58.55 +20 35 05.0 20.5   704 – Lincoln Laboratory ETS, New Mexico MPS 94765
2003 12 22.24521 03 19 58.08 +20 35 04.2 20.1   704 – Lincoln Laboratory ETS, New Mexico MPS 94765
2003 12 22.25842 03 19 57.81 +20 35 03.0 20.3   704 – Lincoln Laboratory ETS, New Mexico MPS 94766
2005 04 04.33498 12 19 53.68 -02 04 05.9 19.5 R G96 – Mt. Lemmon Survey MPS 130747
2005 04 04.34141 12 19 53.28 -02 04 04.4 19.4 R G96 – Mt. Lemmon Survey MPS 130747
2005 04 04.34780 12 19 52.94 -02 04 02.1 19.5 R G96 – Mt. Lemmon Survey MPS 130747
2005 04 04.35420 12 19 52.58 -02 03 58.6 18.8 R G96 – Mt. Lemmon Survey MPS 130747
2006 08 16.16200 20 30 56.77 -21 18 52.2 20.4 R 644 – Palomar Mountain/NEAT MPS 177004
2006 08 16.19048 20 30 55.20 -21 18 55.5 19.5 R 644 – Palomar Mountain/NEAT MPS 177004
2006 08 16.21111 20 30 54.07 -21 18 58.5 20.0 R 644 – Palomar Mountain/NEAT MPS 177004
2006 08 20.20443 20 27 33.44 -21 27 06.5 20.2 R 644 – Palomar Mountain/NEAT MPS 176029
2006 08 20.22481 20 27 32.42 -21 27 08.7 19.9 R 644 – Palomar Mountain/NEAT MPS 176029
2006 08 20.24512 20 27 31.40 -21 27 11.0 19.8 R 644 – Palomar Mountain/NEAT MPS 176029
2007 11 02.45073 07 15 11.62 +24 20 00.3 21.3 V G96 – Mt. Lemmon Survey MPS 224802
2007 11 02.45949 07 15 11.95 +24 20 00.5 20.5 V G96 – Mt. Lemmon Survey MPS 224802
2007 11 02.46833 07 15 12.06 +24 20 00.9 20.8 V G96 – Mt. Lemmon Survey MPS 224802
2007 11 02.47720 07 15 12.31 +24 20 00.8 21.6 V G96 – Mt. Lemmon Survey MPS 224802
2007 11 11.33794 07 18 23.72 +24 22 56.2 20.4 V G96 – Mt. Lemmon Survey MPS 226818
2007 11 11.34674 07 18 23.86 +24 22 55.9 20.7 V G96 – Mt. Lemmon Survey MPS 226818
2007 11 11.35550 07 18 23.94 +24 22 57.3 20.9 V G96 – Mt. Lemmon Survey MPS 226818
2007 11 11.36439 07 18 24.08 +24 22 56.9 21.0 V G96 – Mt. Lemmon Survey MPS 226818
2009 03 26.43125 14 53 04.27 -17 25 22.2 20.3 V 691 – Steward Observatory, Kitt Peak-Spacewatch MPS 281247
2009 03 26.44895 14 53 03.85 -17 25 21.3 20.9 V 691 – Steward Observatory, Kitt Peak-Spacewatch MPS 281247
2009 03 26.46663 14 53 03.33 -17 25 20.5 21.1 V 691 – Steward Observatory, Kitt Peak-Spacewatch MPS 281247
2009 04 02.41942 14 49 34.09 -17 15 54.7 20.6 V 691 – Steward Observatory, Kitt Peak-Spacewatch MPS 282517
2009 04 02.43714 14 49 33.39 -17 15 52.9 20.7 V 691 – Steward Observatory, Kitt Peak-Spacewatch MPS 282517
2009 04 02.45488 14 49 32.76 -17 15 50.6 20.7 V 691 – Steward Observatory, Kitt Peak-Spacewatch MPS 282517
2009 04 22.35763 14 33 32.32 -16 18 31.2 20.0 V G96 – Mt. Lemmon Survey MPS 285610
2009 04 22.36437 14 33 31.89 -16 18 29.7 20.1 V G96 – Mt. Lemmon Survey MPS 285610
2009 04 22.37125 14 33 31.50 -16 18 28.1 19.8 V G96 – Mt. Lemmon Survey MPS 285610
2009 04 22.37810 14 33 31.06 -16 18 26.9 20.0 V G96 – Mt. Lemmon Survey MPS 285610
2009 05 18.24907 14 09 20.44 -14 31 56.8 20.3 V G96 – Mt. Lemmon Survey MPS 287332
2009 05 18.25601 14 09 20.08 -14 31 55.2 20.2 V G96 – Mt. Lemmon Survey MPS 287332
2009 05 18.26301 14 09 19.72 -14 31 53.8 20.0 V G96 – Mt. Lemmon Survey MPS 287332
2009 05 18.27000 14 09 19.40 -14 31 52.3 20.0 V G96 – Mt. Lemmon Survey MPS 287332
2009 05 31.19697 14 01 00.01 -13 50 40.8 20.5 V G96 – Mt. Lemmon Survey MPS 288605
2009 05 31.20534 14 00 59.72 -13 50 39.7 20.8 V G96 – Mt. Lemmon Survey MPS 288605
2009 05 31.21360 14 00 59.50 -13 50 38.3 20.9 V G96 – Mt. Lemmon Survey MPS 288605
2009 05 31.22190 14 00 59.22 -13 50 37.0 20.8 V G96 – Mt. Lemmon Survey MPS 288605
2010 09 11.30449 23 33 39.85 -03 54 41.5 19.2 V G96 – Mt. Lemmon Survey MPS 349284
2010 09 11.31236 23 33 39.38 -03 54 43.8 19.2 V G96 – Mt. Lemmon Survey MPS 349284
2010 09 11.31255 23 33 39.38 -03 54 44.0 19.6 V 703 – Catalina Sky Survey MPS 349284
2010 09 11.31315 23 33 39.26 -03 54 43.8 19.1   704 – Lincoln Laboratory ETS, New Mexico MPS 349284
2010 09 11.31879 23 33 39.06 -03 54 45.4 19.1 V 703 – Catalina Sky Survey MPS 349284
2010 09 11.32021 23 33 38.95 -03 54 46.4 19.2 V G96 – Mt. Lemmon Survey MPS 349284
2010 09 11.32513 23 33 38.70 -03 54 48.3 19.3 V 703 – Catalina Sky Survey MPS 349284
2010 09 11.32527 23 33 38.66 -03 54 46.8 19.5   704 – Lincoln Laboratory ETS, New Mexico MPS 349284
2010 09 11.32808 23 33 38.48 -03 54 48.7 19.2 V G96 – Mt. Lemmon Survey MPS 349284
2010 09 11.33151 23 33 38.37 -03 54 49.7 19.5 V 703 – Catalina Sky Survey MPS 349284
2010 09 11.33740 23 33 37.91 -03 54 50.6 19.3   704 – Lincoln Laboratory ETS, New Mexico MPS 349284
2010 09 11.34952 23 33 37.19 -03 54 54.3 19.5   704 – Lincoln Laboratory ETS, New Mexico MPS 349284
2010 09 26.442674 23 20 02.819 -05 07 08.71 19.49 i F51 – Pan-STARRS 1, Haleakala MPS 365220
2010 09 26.455122 23 20 02.161 -05 07 11.82 19.50 i F51 – Pan-STARRS 1, Haleakala MPS 365220
2010 09 28.379961 23 18 27.300 -05 15 15.42 19.79 r F51 – Pan-STARRS 1, Haleakala MPS 365220
2010 09 28.390960 23 18 26.745 -05 15 17.97 19.65 r F51 – Pan-STARRS 1, Haleakala MPS 365220
2010 09 29.27016 23 17 44.48 -05 18 51.4 19.4 V G96 – Mt. Lemmon Survey MPS 350917
2010 09 29.27540 23 17 44.23 -05 18 53.1 19.7 V G96 – Mt. Lemmon Survey MPS 350917
2010 09 29.28065 23 17 43.98 -05 18 54.3 19.6 V G96 – Mt. Lemmon Survey MPS 350917
2010 09 29.28581 23 17 43.72 -05 18 55.5 19.6 V G96 – Mt. Lemmon Survey MPS 350917
2010 10 07.325447 23 12 00.278 -05 46 35.21 20.31 g F51 – Pan-STARRS 1, Haleakala MPS 365220
